Date_Time,Julian_Date,Latitude,Longitude,Instrument_Depth,U,V,Speed,Direction
(yyyy-mm-dd hh:mn:ss UTC),(JD),(+ deg. North),(+ deg. East),(m),(cm/s),(cm/s),(cm/s),(deg True)
1982-01-24 20:30:00 UTC,2444994.354167,29.7697,-93.3439,0046,-3.07,87.95,88.0000,358.0000
1982-01-24 21:00:00 UTC,2444994.375000,29.7697,-93.3439,0046,-2.97,84.95,85.0000,358.0000
1982-01-24 21:30:00 UTC,2444994.395833,29.7697,-93.3439,0046,-2.72,77.95,78.0000,358.0000
1982-01-24 22:00:00 UTC,2444994.416667,29.7697,-93.3439,0046,-1.31,74.99,75.0000,359.0000
1982-01-24 22:30:00 UTC,2444994.437500,29.7697,-93.3439,0046,-1.29,73.99,74.0000,359.0000
1982-01-24 23:00:00 UTC,2444994.458333,29.7697,-93.3439,0046,-1.27,72.99,73.0000,359.0000
1982-01-24 23:30:00 UTC,2444994.479167,29.7697,-93.3439,0046,0.00,0.00,0.0000,0.0000
1982-01-25 00:00:00 UTC,2444994.500000,29.7697,-93.3439,0046,-1.15,65.99,66.0000,359.0000
1982-01-25 00:30:00 UTC,2444994.520833,29.7697,-93.3439,0046,-2.27,64.96,65.0000,358.0000
1982-01-25 01:00:00 UTC,2444994.541667,29.7697,-93.3439,0046,-2.30,65.96,66.0000,358.0000
1982-01-25 01:30:00 UTC,2444994.562500,29.7697,-93.3439,0046,-2.27,64.96,65.0000,358.0000
1982-01-25 02:00:00 UTC,2444994.583333,29.7697,-93.3439,0046,-2.27,64.96,65.0000,358.0000
1982-01-25 02:30:00 UTC,2444994.604167,29.7697,-93.3439,0046,-2.30,65.96,66.0000,358.0000
1982-01-25 03:00:00 UTC,2444994.625000,29.7697,-93.3439,0046,-3.30,62.91,63.0000,357.0000
1982-01-25 03:30:00 UTC,2444994.645833,29.7697,-93.3439,0046,-4.05,57.86,58.0000,356.0000
1982-01-25 04:00:00 UTC,2444994.666667,29.7697,-93.3439,0046,-1.78,50.97,51.0000,358.0000
1982-01-25 04:30:00 UTC,2444994.687500,29.7697,-93.3439,0046,-0.75,42.99,43.0000,359.0000
1982-01-25 05:00:00 UTC,2444994.708333,29.7697,-93.3439,0046,-0.63,35.99,36.0000,359.0000
1982-01-25 05:30:00 UTC,2444994.729167,29.7697,-93.3439,0046,-1.19,33.98,34.0000,358.0000
1982-01-25 06:00:00 UTC,2444994.750000,29.7697,-93.3439,0046,-1.22,34.98,35.0000,358.0000
1982-01-25 06:30:00 UTC,2444994.770833,29.7697,-93.3439,0046,-1.29,36.98,37.0000,358.0000
1982-01-25 07:00:00 UTC,2444994.791667,29.7697,-93.3439,0046,-0.66,37.99,38.0000,359.0000
1982-01-25 07:30:00 UTC,2444994.812500,29.7697,-93.3439,0046,-0.65,36.99,37.0000,359.0000
1982-01-25 08:00:00 UTC,2444994.833333,29.7697,-93.3439,0046,0.00,0.00,0.0000,0.0000
1982-01-25 08:30:00 UTC,2444994.854167,29.7697,-93.3439,0046,0.44,25.00,25.0000,1.0000
1982-01-25 09:00:00 UTC,2444994.875000,29.7697,-93.3439,0046,-0.26,15.00,15.0000,359.0000
1982-01-25 09:30:00 UTC,2444994.895833,29.7697,-93.3439,0046,0.14,2.00,2.0000,4.0000
1982-01-25 10:00:00 UTC,2444994.916667,29.7697,-93.3439,0046,1.05,-14.96,15.0000,176.0000
1982-01-25 10:30:00 UTC,2444994.937500,29.7697,-93.3439,0046,1.62,-30.96,31.0000,177.0000
1982-01-25 11:00:00 UTC,2444994.958333,29.7697,-93.3439,0046,3.75,-42.84,43.0000,175.0000
1982-01-25 11:30:00 UTC,2444994.979167,29.7697,-93.3439,0046,4.53,-51.80,52.0000,175.0000
1982-01-25 12:00:00 UTC,2444995.000000,29.7697,-93.3439,0046,4.12,-58.86,59.0000,176.0000
1982-01-25 12:30:00 UTC,2444995.020833,29.7697,-93.3439,0046,2.27,-64.96,65.0000,178.0000
1982-01-25 13:00:00 UTC,2444995.041667,29.7697,-93.3439,0046,2.41,-68.96,69.0000,178.0000
1982-01-25 13:30:00 UTC,2444995.062500,29.7697,-93.3439,0046,2.48,-70.96,71.0000,178.0000
1982-01-25 14:00:00 UTC,2444995.083333,29.7697,-93.3439,0046,2.48,-70.96,71.0000,178.0000
1982-01-25 14:30:00 UTC,2444995.104167,29.7697,-93.3439,0046,1.20,-68.99,69.0000,179.0000
1982-01-25 15:00:00 UTC,2444995.125000,29.7697,-93.3439,0046,0.00,-67.00,67.0000,180.0000
1982-01-25 15:30:00 UTC,2444995.145833,29.7697,-93.3439,0046,0.00,-65.00,65.0000,180.0000
1982-01-25 16:00:00 UTC,2444995.166667,29.7697,-93.3439,0046,1.10,-62.99,63.0000,179.0000
1982-01-25 16:30:00 UTC,2444995.187500,29.7697,-93.3439,0046,-1.01,-57.99,58.0000,181.0000
1982-01-25 17:00:00 UTC,2444995.208333,29.7697,-93.3439,0046,-2.67,-50.93,51.0000,183.0000
1982-01-25 17:30:00 UTC,2444995.229167,29.7697,-93.3439,0046,-3.00,-42.90,43.0000,184.0000
1982-01-25 18:00:00 UTC,2444995.250000,29.7697,-93.3439,0046,-3.14,-35.86,36.0000,185.0000
1982-01-25 18:30:00 UTC,2444995.270833,29.7697,-93.3439,0046,-2.70,-30.88,31.0000,185.0000
1982-01-25 19:00:00 UTC,2444995.291667,29.7697,-93.3439,0046,-3.82,-21.67,22.0000,190.0000
1982-01-25 19:30:00 UTC,2444995.312500,29.7697,-93.3439,0046,-3.81,-5.87,7.0000,213.0000
1982-01-25 20:00:00 UTC,2444995.333333,29.7697,-93.3439,0046,-1.95,15.88,16.0000,353.0000
1982-01-25 20:30:00 UTC,2444995.354167,29.7697,-93.3439,0046,-0.61,34.99,35.0000,359.0000
1982-01-25 21:00:00 UTC,2444995.375000,29.7697,-93.3439,0046,0.00,0.00,0.0000,0.0000
1982-01-25 21:30:00 UTC,2444995.395833,29.7697,-93.3439,0046,0.00,0.00,0.0000,0.0000
1982-01-25 22:00:00 UTC,2444995.416667,29.7697,-93.3439,0046,0.00,0.00,0.0000,0.0000
1982-01-25 22:30:00 UTC,2444995.437500,29.7697,-93.3439,0046,-1.03,58.99,59.0000,359.0000
1982-01-25 23:00:00 UTC,2444995.458333,29.7697,-93.3439,0046,-0.98,55.99,56.0000,359.0000
1982-01-25 23:30:00 UTC,2444995.479167,29.7697,-93.3439,0046,-0.93,52.99,53.0000,359.0000
1982-01-26 00:00:00 UTC,2444995.500000,29.7697,-93.3439,0046,-0.86,48.99,49.0000,359.0000
1982-01-26 00:30:00 UTC,2444995.520833,29.7697,-93.3439,0046,-0.75,42.99,43.0000,359.0000
1982-01-26 01:00:00 UTC,2444995.541667,29.7697,-93.3439,0046,0.00,0.00,0.0000,0.0000
1982-01-26 01:30:00 UTC,2444995.562500,29.7697,-93.3439,0046,1.31,24.97,25.0000,3.0000
1982-01-26 02:00:00 UTC,2444995.583333,29.7697,-93.3439,0046,1.57,14.92,15.0000,6.0000
1982-01-26 02:30:00 UTC,2444995.604167,29.7697,-93.3439,0046,1.73,-1.00,2.0000,120.0000
1982-01-26 03:00:00 UTC,2444995.625000,29.7697,-93.3439,0046,1.66,-18.93,19.0000,175.0000
1982-01-26 03:30:00 UTC,2444995.645833,29.7697,-93.3439,0046,2.16,-30.92,31.0000,176.0000
1982-01-26 04:00:00 UTC,2444995.666667,29.7697,-93.3439,0046,3.14,-35.86,36.0000,175.0000
1982-01-26 04:30:00 UTC,2444995.687500,29.7697,-93.3439,0046,4.08,-38.79,39.0000,174.0000
1982-01-26 05:00:00 UTC,2444995.708333,29.7697,-93.3439,0046,2.79,-39.90,40.0000,176.0000
1982-01-26 05:30:00 UTC,2444995.729167,29.7697,-93.3439,0046,2.04,-38.95,39.0000,177.0000
1982-01-26 06:00:00 UTC,2444995.750000,29.7697,-93.3439,0046,1.33,-37.98,38.0000,178.0000
1982-01-26 06:30:00 UTC,2444995.770833,29.7697,-93.3439,0046,1.29,-36.98,37.0000,178.0000
1982-01-26 07:00:00 UTC,2444995.791667,29.7697,-93.3439,0046,1.33,-37.98,38.0000,178.0000
1982-01-26 07:30:00 UTC,2444995.812500,29.7697,-93.3439,0046,0.80,-45.99,46.0000,179.0000
1982-01-26 08:00:00 UTC,2444995.833333,29.7697,-93.3439,0046,0.00,-55.00,55.0000,180.0000
1982-01-26 08:30:00 UTC,2444995.854167,29.7697,-93.3439,0046,0.00,-60.00,60.0000,180.0000
1982-01-26 09:00:00 UTC,2444995.875000,29.7697,-93.3439,0046,-2.13,-60.96,61.0000,182.0000
1982-01-26 09:30:00 UTC,2444995.895833,29.7697,-93.3439,0046,-2.09,-59.96,60.0000,182.0000
1982-01-26 10:00:00 UTC,2444995.916667,29.7697,-93.3439,0046,-2.06,-58.96,59.0000,182.0000
1982-01-26 10:30:00 UTC,2444995.937500,29.7697,-93.3439,0046,-1.99,-56.97,57.0000,182.0000
1982-01-26 11:00:00 UTC,2444995.958333,29.7697,-93.3439,0046,-3.70,-52.87,53.0000,184.0000
1982-01-26 11:30:00 UTC,2444995.979167,29.7697,-93.3439,0046,-4.36,-49.81,50.0000,185.0000
1982-01-26 12:00:00 UTC,2444996.000000,29.7697,-93.3439,0046,-4.27,-48.81,49.0000,185.0000
1982-01-26 12:30:00 UTC,2444996.020833,29.7697,-93.3439,0046,-6.09,-49.63,50.0000,187.0000
1982-01-26 13:00:00 UTC,2444996.041667,29.7697,-93.3439,0046,-6.09,-49.63,50.0000,187.0000
1982-01-26 13:30:00 UTC,2444996.062500,29.7697,-93.3439,0046,-5.44,-51.72,52.0000,186.0000
1982-01-26 14:00:00 UTC,2444996.083333,29.7697,-93.3439,0046,-4.71,-53.79,54.0000,185.0000
1982-01-26 14:30:00 UTC,2444996.104167,29.7697,-93.3439,0046,-3.77,-53.87,54.0000,184.0000
1982-01-26 15:00:00 UTC,2444996.125000,29.7697,-93.3439,0046,-3.63,-51.87,52.0000,184.0000
1982-01-26 15:30:00 UTC,2444996.145833,29.7697,-93.3439,0046,-3.42,-48.88,49.0000,184.0000
1982-01-26 16:00:00 UTC,2444996.166667,29.7697,-93.3439,0046,-3.35,-47.88,48.0000,184.0000
1982-01-26 16:30:00 UTC,2444996.187500,29.7697,-93.3439,0046,-3.92,-44.83,45.0000,185.0000
1982-01-26 17:00:00 UTC,2444996.208333,29.7697,-93.3439,0046,-3.57,-40.84,41.0000,185.0000
1982-01-26 17:30:00 UTC,2444996.229167,29.7697,-93.3439,0046,-3.14,-35.86,36.0000,185.0000
1982-01-26 18:00:00 UTC,2444996.250000,29.7697,-93.3439,0046,-2.44,-27.89,28.0000,185.0000
1982-01-26 18:30:00 UTC,2444996.270833,29.7697,-93.3439,0046,-2.20,-20.88,21.0000,186.0000
1982-01-26 19:00:00 UTC,2444996.291667,29.7697,-93.3439,0046,-1.58,-12.90,13.0000,187.0000
1982-01-26 19:30:00 UTC,2444996.312500,29.7697,-93.3439,0046,-0.42,1.96,2.0000,348.0000
1982-01-26 20:00:00 UTC,2444996.333333,29.7697,-93.3439,0046,-0.44,25.00,25.0000,359.0000
1982-01-26 20:30:00 UTC,2444996.354167,29.7697,-93.3439,0046,-1.57,44.97,45.0000,358.0000
1982-01-26 21:00:00 UTC,2444996.375000,29.7697,-93.3439,0046,-3.19,60.92,61.0000,357.0000
1982-01-26 21:30:00 UTC,2444996.395833,29.7697,-93.3439,0046,-2.48,70.96,71.0000,358.0000
1982-01-26 22:00:00 UTC,2444996.416667,29.7697,-93.3439,0046,-1.27,72.99,73.0000,359.0000
1982-01-26 22:30:00 UTC,2444996.437500,29.7697,-93.3439,0046,-1.27,72.99,73.0000,359.0000
1982-01-26 23:00:00 UTC,2444996.458333,29.7697,-93.3439,0046,-1.27,72.99,73.0000,359.0000
1982-01-26 23:30:00 UTC,2444996.479167,29.7697,-93.3439,0046,-1.27,72.99,73.0000,359.0000
1982-01-27 00:00:00 UTC,2444996.500000,29.7697,-93.3439,0046,-1.27,72.99,73.0000,359.0000
1982-01-27 00:30:00 UTC,2444996.520833,29.7697,-93.3439,0046,-1.26,71.99,72.0000,359.0000
1982-01-27 01:00:00 UTC,2444996.541667,29.7697,-93.3439,0046,0.00,0.00,0.0000,0.0000
1982-01-27 01:30:00 UTC,2444996.562500,29.7697,-93.3439,0046,0.00,0.00,0.0000,0.0000
1982-01-27 02:00:00 UTC,2444996.583333,29.7697,-93.3439,0046,1.12,63.99,64.0000,1.0000
1982-01-27 02:30:00 UTC,2444996.604167,29.7697,-93.3439,0046,1.03,58.99,59.0000,1.0000
1982-01-27 03:00:00 UTC,2444996.625000,29.7697,-93.3439,0046,0.94,53.99,54.0000,1.0000
1982-01-27 03:30:00 UTC,2444996.645833,29.7697,-93.3439,0046,0.00,0.00,0.0000,0.0000
1982-01-27 04:00:00 UTC,2444996.666667,29.7697,-93.3439,0046,-0.75,42.99,43.0000,359.0000
1982-01-27 04:30:00 UTC,2444996.687500,29.7697,-93.3439,0046,-2.09,39.95,40.0000,357.0000
1982-01-27 05:00:00 UTC,2444996.708333,29.7697,-93.3439,0046,-1.99,37.95,38.0000,357.0000
1982-01-27 05:30:00 UTC,2444996.729167,29.7697,-93.3439,0046,-0.56,32.00,32.0000,359.0000
1982-01-27 06:00:00 UTC,2444996.750000,29.7697,-93.3439,0046,0.47,27.00,27.0000,1.0000
1982-01-27 06:30:00 UTC,2444996.770833,29.7697,-93.3439,0046,0.87,24.98,25.0000,2.0000
1982-01-27 07:00:00 UTC,2444996.791667,29.7697,-93.3439,0046,0.47,27.00,27.0000,1.0000
1982-01-27 07:30:00 UTC,2444996.812500,29.7697,-93.3439,0046,0.51,29.00,29.0000,1.0000
1982-01-27 08:00:00 UTC,2444996.833333,29.7697,-93.3439,0046,0.56,32.00,32.0000,1.0000
1982-01-27 08:30:00 UTC,2444996.854167,29.7697,-93.3439,0046,0.00,0.00,0.0000,0.0000
1982-01-27 09:00:00 UTC,2444996.875000,29.7697,-93.3439,0046,-0.73,41.99,42.0000,359.0000
1982-01-27 09:30:00 UTC,2444996.895833,29.7697,-93.3439,0046,-0.79,44.99,45.0000,359.0000
1982-01-27 10:00:00 UTC,2444996.916667,29.7697,-93.3439,0046,0.00,0.00,0.0000,0.0000
1982-01-27 10:30:00 UTC,2444996.937500,29.7697,-93.3439,0046,-0.66,37.99,38.0000,359.0000
1982-01-27 11:00:00 UTC,2444996.958333,29.7697,-93.3439,0046,-0.56,32.00,32.0000,359.0000
1982-01-27 11:30:00 UTC,2444996.979167,29.7697,-93.3439,0046,-0.40,23.00,23.0000,359.0000
1982-01-27 12:00:00 UTC,2444997.000000,29.7697,-93.3439,0046,-1.74,9.85,10.0000,350.0000
1982-01-27 12:30:00 UTC,2444997.020833,29.7697,-93.3439,0046,-1.11,-7.92,8.0000,188.0000
1982-01-27 13:00:00 UTC,2444997.041667,29.7697,-93.3439,0046,0.94,-26.98,27.0000,178.0000
1982-01-27 13:30:00 UTC,2444997.062500,29.7697,-93.3439,0046,2.20,-41.94,42.0000,177.0000
1982-01-27 14:00:00 UTC,2444997.083333,29.7697,-93.3439,0046,2.77,-52.93,53.0000,177.0000
1982-01-27 14:30:00 UTC,2444997.104167,29.7697,-93.3439,0046,3.09,-58.92,59.0000,177.0000
1982-01-27 15:00:00 UTC,2444997.125000,29.7697,-93.3439,0046,3.19,-60.92,61.0000,177.0000
1982-01-27 15:30:00 UTC,2444997.145833,29.7697,-93.3439,0046,3.24,-61.92,62.0000,177.0000
1982-01-27 16:00:00 UTC,2444997.166667,29.7697,-93.3439,0046,2.20,-62.96,63.0000,178.0000
1982-01-27 16:30:00 UTC,2444997.187500,29.7697,-93.3439,0046,3.24,-61.92,62.0000,177.0000
1982-01-27 17:00:00 UTC,2444997.208333,29.7697,-93.3439,0046,3.04,-57.92,58.0000,177.0000
1982-01-27 17:30:00 UTC,2444997.229167,29.7697,-93.3439,0046,2.72,-51.93,52.0000,177.0000
1982-01-27 18:00:00 UTC,2444997.250000,29.7697,-93.3439,0046,1.61,-45.97,46.0000,178.0000
1982-01-27 18:30:00 UTC,2444997.270833,29.7697,-93.3439,0046,1.33,-37.98,38.0000,178.0000
1982-01-27 19:00:00 UTC,2444997.291667,29.7697,-93.3439,0046,1.05,-29.98,30.0000,178.0000
1982-01-27 19:30:00 UTC,2444997.312500,29.7697,-93.3439,0046,0.94,-17.98,18.0000,177.0000
1982-01-27 20:00:00 UTC,2444997.333333,29.7697,-93.3439,0046,0.75,0.66,1.0000,49.0000
1982-01-27 20:30:00 UTC,2444997.354167,29.7697,-93.3439,0046,-0.35,20.00,20.0000,359.0000
1982-01-27 21:00:00 UTC,2444997.375000,29.7697,-93.3439,0046,-0.61,34.99,35.0000,359.0000
1982-01-27 21:30:00 UTC,2444997.395833,29.7697,-93.3439,0046,0.80,45.99,46.0000,1.0000
1982-01-27 22:00:00 UTC,2444997.416667,29.7697,-93.3439,0046,1.85,52.97,53.0000,2.0000
1982-01-27 22:30:00 UTC,2444997.437500,29.7697,-93.3439,0046,0.98,55.99,56.0000,1.0000
1982-01-27 23:00:00 UTC,2444997.458333,29.7697,-93.3439,0046,0.96,54.99,55.0000,1.0000
1982-01-27 23:30:00 UTC,2444997.479167,29.7697,-93.3439,0046,0.93,52.99,53.0000,1.0000
1982-01-28 00:00:00 UTC,2444997.500000,29.7697,-93.3439,0046,0.87,49.99,50.0000,1.0000
1982-01-28 00:30:00 UTC,2444997.520833,29.7697,-93.3439,0046,0.80,45.99,46.0000,1.0000
1982-01-28 01:00:00 UTC,2444997.541667,29.7697,-93.3439,0046,0.73,41.99,42.0000,1.0000
1982-01-28 01:30:00 UTC,2444997.562500,29.7697,-93.3439,0046,0.00,0.00,0.0000,0.0000
1982-01-28 02:00:00 UTC,2444997.583333,29.7697,-93.3439,0046,-0.49,28.00,28.0000,359.0000
1982-01-28 02:30:00 UTC,2444997.604167,29.7697,-93.3439,0046,-0.38,22.00,22.0000,359.0000
1982-01-28 03:00:00 UTC,2444997.625000,29.7697,-93.3439,0046,0.30,17.00,17.0000,1.0000
1982-01-28 03:30:00 UTC,2444997.645833,29.7697,-93.3439,0046,0.87,9.96,10.0000,5.0000
1982-01-28 04:00:00 UTC,2444997.666667,29.7697,-93.3439,0046,0.53,0.85,1.0000,32.0000
1982-01-28 04:30:00 UTC,2444997.687500,29.7697,-93.3439,0046,0.35,-9.99,10.0000,178.0000
1982-01-28 05:00:00 UTC,2444997.708333,29.7697,-93.3439,0046,0.70,-19.99,20.0000,178.0000
1982-01-28 05:30:00 UTC,2444997.729167,29.7697,-93.3439,0046,1.67,-23.94,24.0000,176.0000
1982-01-28 06:00:00 UTC,2444997.750000,29.7697,-93.3439,0046,2.51,-23.87,24.0000,174.0000
1982-01-28 06:30:00 UTC,2444997.770833,29.7697,-93.3439,0046,2.44,-19.85,20.0000,173.0000
1982-01-28 07:00:00 UTC,2444997.791667,29.7697,-93.3439,0046,1.58,-12.90,13.0000,173.0000
1982-01-28 07:30:00 UTC,2444997.812500,29.7697,-93.3439,0046,0.37,-2.98,3.0000,173.0000
1982-01-28 08:00:00 UTC,2444997.833333,29.7697,-93.3439,0046,-0.12,7.00,7.0000,359.0000
1982-01-28 08:30:00 UTC,2444997.854167,29.7697,-93.3439,0046,0.28,16.00,16.0000,1.0000
1982-01-28 09:00:00 UTC,2444997.875000,29.7697,-93.3439,0046,-0.40,23.00,23.0000,359.0000
1982-01-28 09:30:00 UTC,2444997.895833,29.7697,-93.3439,0046,-0.44,25.00,25.0000,359.0000
1982-01-28 10:00:00 UTC,2444997.916667,29.7697,-93.3439,0046,0.00,0.00,0.0000,0.0000
1982-01-28 10:30:00 UTC,2444997.937500,29.7697,-93.3439,0046,-0.28,16.00,16.0000,359.0000
1982-01-28 11:00:00 UTC,2444997.958333,29.7697,-93.3439,0046,-2.03,4.57,5.0000,336.0000
1982-01-28 11:30:00 UTC,2444997.979167,29.7697,-93.3439,0046,-3.52,-8.28,9.0000,203.0000
1982-01-28 12:00:00 UTC,2444998.000000,29.7697,-93.3439,0046,-2.68,-21.84,22.0000,187.0000
1982-01-28 12:30:00 UTC,2444998.020833,29.7697,-93.3439,0046,0.58,-32.99,33.0000,179.0000
1982-01-28 13:00:00 UTC,2444998.041667,29.7697,-93.3439,0046,2.93,-41.90,42.0000,176.0000
1982-01-28 13:30:00 UTC,2444998.062500,29.7697,-93.3439,0046,2.56,-48.93,49.0000,177.0000
1982-01-28 14:00:00 UTC,2444998.083333,29.7697,-93.3439,0046,2.88,-54.92,55.0000,177.0000
1982-01-28 14:30:00 UTC,2444998.104167,29.7697,-93.3439,0046,3.14,-59.92,60.0000,177.0000
1982-01-28 15:00:00 UTC,2444998.125000,29.7697,-93.3439,0046,2.27,-64.96,65.0000,178.0000
1982-01-28 15:30:00 UTC,2444998.145833,29.7697,-93.3439,0046,1.17,-66.99,67.0000,179.0000
1982-01-28 16:00:00 UTC,2444998.166667,29.7697,-93.3439,0046,0.00,-67.00,67.0000,180.0000
1982-01-28 16:30:00 UTC,2444998.187500,29.7697,-93.3439,0046,-1.13,-64.99,65.0000,181.0000
1982-01-28 17:00:00 UTC,2444998.208333,29.7697,-93.3439,0046,-2.13,-60.96,61.0000,182.0000
1982-01-28 17:30:00 UTC,2444998.229167,29.7697,-93.3439,0046,-3.91,-55.86,56.0000,184.0000
1982-01-28 18:00:00 UTC,2444998.250000,29.7697,-93.3439,0046,-3.63,-51.87,52.0000,184.0000
1982-01-28 18:30:00 UTC,2444998.270833,29.7697,-93.3439,0046,-2.56,-48.93,49.0000,183.0000
1982-01-28 19:00:00 UTC,2444998.291667,29.7697,-93.3439,0046,-3.07,-43.89,44.0000,184.0000
1982-01-28 19:30:00 UTC,2444998.312500,29.7697,-93.3439,0046,-3.87,-36.80,37.0000,186.0000
1982-01-28 20:00:00 UTC,2444998.333333,29.7697,-93.3439,0046,-3.14,-29.84,30.0000,186.0000
1982-01-28 20:30:00 UTC,2444998.354167,29.7697,-93.3439,0046,-1.33,-18.95,19.0000,184.0000
1982-01-28 21:00:00 UTC,2444998.375000,29.7697,-93.3439,0046,-0.73,-2.91,3.0000,194.0000
1982-01-28 21:30:00 UTC,2444998.395833,29.7697,-93.3439,0046,-1.67,15.91,16.0000,354.0000
1982-01-28 22:00:00 UTC,2444998.416667,29.7697,-93.3439,0046,-1.15,32.98,33.0000,358.0000
1982-01-28 22:30:00 UTC,2444998.437500,29.7697,-93.3439,0046,0.77,43.99,44.0000,1.0000
1982-01-28 23:00:00 UTC,2444998.458333,29.7697,-93.3439,0046,1.81,51.97,52.0000,2.0000
1982-01-28 23:30:00 UTC,2444998.479167,29.7697,-93.3439,0046,1.92,54.97,55.0000,2.0000
1982-01-29 00:00:00 UTC,2444998.500000,29.7697,-93.3439,0046,0.94,53.99,54.0000,1.0000
1982-01-29 00:30:00 UTC,2444998.520833,29.7697,-93.3439,0046,0.00,0.00,0.0000,0.0000
1982-01-29 01:00:00 UTC,2444998.541667,29.7697,-93.3439,0046,0.00,0.00,0.0000,0.0000
1982-01-29 01:30:00 UTC,2444998.562500,29.7697,-93.3439,0046,0.82,46.99,47.0000,1.0000
1982-01-29 02:00:00 UTC,2444998.583333,29.7697,-93.3439,0046,0.79,44.99,45.0000,1.0000
1982-01-29 02:30:00 UTC,2444998.604167,29.7697,-93.3439,0046,-0.75,42.99,43.0000,359.0000
1982-01-29 03:00:00 UTC,2444998.625000,29.7697,-93.3439,0046,-0.68,38.99,39.0000,359.0000
1982-01-29 03:30:00 UTC,2444998.645833,29.7697,-93.3439,0046,1.08,30.98,31.0000,2.0000
1982-01-29 04:00:00 UTC,2444998.666667,29.7697,-93.3439,0046,1.60,22.94,23.0000,4.0000
1982-01-29 04:30:00 UTC,2444998.687500,29.7697,-93.3439,0046,0.52,14.99,15.0000,2.0000
1982-01-29 05:00:00 UTC,2444998.708333,29.7697,-93.3439,0046,-1.25,5.87,6.0000,348.0000
1982-01-29 05:30:00 UTC,2444998.729167,29.7697,-93.3439,0046,-1.93,-2.30,3.0000,220.0000
1982-01-29 06:00:00 UTC,2444998.750000,29.7697,-93.3439,0046,-0.73,-5.96,6.0000,187.0000
1982-01-29 06:30:00 UTC,2444998.770833,29.7697,-93.3439,0046,0.73,-5.96,6.0000,173.0000
1982-01-29 07:00:00 UTC,2444998.791667,29.7697,-93.3439,0046,1.71,-4.70,5.0000,160.0000
1982-01-29 07:30:00 UTC,2444998.812500,29.7697,-93.3439,0046,1.70,-1.06,2.0000,122.0000
1982-01-29 08:00:00 UTC,2444998.833333,29.7697,-93.3439,0046,0.31,5.99,6.0000,3.0000
1982-01-29 08:30:00 UTC,2444998.854167,29.7697,-93.3439,0046,-0.49,13.99,14.0000,358.0000
1982-01-29 09:00:00 UTC,2444998.875000,29.7697,-93.3439,0046,-0.70,19.99,20.0000,358.0000
1982-01-29 09:30:00 UTC,2444998.895833,29.7697,-93.3439,0046,-1.20,22.97,23.0000,357.0000
1982-01-29 10:00:00 UTC,2444998.916667,29.7697,-93.3439,0046,-2.35,26.90,27.0000,355.0000
1982-01-29 10:30:00 UTC,2444998.937500,29.7697,-93.3439,0046,-2.09,29.93,30.0000,356.0000
1982-01-29 11:00:00 UTC,2444998.958333,29.7697,-93.3439,0046,-1.67,31.96,32.0000,357.0000
1982-01-29 11:30:00 UTC,2444998.979167,29.7697,-93.3439,0046,-1.08,30.98,31.0000,358.0000
1982-01-29 12:00:00 UTC,2444999.000000,29.7697,-93.3439,0046,-0.94,26.98,27.0000,358.0000
1982-01-29 12:30:00 UTC,2444999.020833,29.7697,-93.3439,0046,-0.80,22.99,23.0000,358.0000
1982-01-29 13:00:00 UTC,2444999.041667,29.7697,-93.3439,0046,-0.31,18.00,18.0000,359.0000
1982-01-29 13:30:00 UTC,2444999.062500,29.7697,-93.3439,0046,-0.35,9.99,10.0000,358.0000
1982-01-29 14:00:00 UTC,2444999.083333,29.7697,-93.3439,0046,-0.62,-1.90,2.0000,198.0000
1982-01-29 14:30:00 UTC,2444999.104167,29.7697,-93.3439,0046,-0.30,-17.00,17.0000,181.0000
1982-01-29 15:00:00 UTC,2444999.125000,29.7697,-93.3439,0046,1.57,-29.96,30.0000,177.0000
1982-01-29 15:30:00 UTC,2444999.145833,29.7697,-93.3439,0046,3.40,-38.85,39.0000,175.0000
1982-01-29 16:00:00 UTC,2444999.166667,29.7697,-93.3439,0046,3.83,-43.83,44.0000,175.0000
1982-01-29 16:30:00 UTC,2444999.187500,29.7697,-93.3439,0046,4.81,-45.75,46.0000,174.0000
1982-01-29 17:00:00 UTC,2444999.208333,29.7697,-93.3439,0046,4.91,-46.74,47.0000,174.0000
1982-01-29 17:30:00 UTC,2444999.229167,29.7697,-93.3439,0046,4.10,-46.82,47.0000,175.0000
1982-01-29 18:00:00 UTC,2444999.250000,29.7697,-93.3439,0046,3.07,-43.89,44.0000,176.0000
1982-01-29 18:30:00 UTC,2444999.270833,29.7697,-93.3439,0046,2.72,-38.90,39.0000,176.0000
1982-01-29 19:00:00 UTC,2444999.291667,29.7697,-93.3439,0046,2.23,-31.92,32.0000,176.0000
1982-01-29 19:30:00 UTC,2444999.312500,29.7697,-93.3439,0046,1.67,-23.94,24.0000,176.0000
1982-01-29 20:00:00 UTC,2444999.333333,29.7697,-93.3439,0046,1.31,-14.94,15.0000,175.0000
1982-01-29 20:30:00 UTC,2444999.354167,29.7697,-93.3439,0046,2.05,-6.69,7.0000,163.0000
1982-01-29 21:00:00 UTC,2444999.375000,29.7697,-93.3439,0046,2.23,2.01,3.0000,48.0000
1982-01-29 21:30:00 UTC,2444999.395833,29.7697,-93.3439,0046,0.21,12.00,12.0000,1.0000
1982-01-29 22:00:00 UTC,2444999.416667,29.7697,-93.3439,0046,-0.84,23.99,24.0000,358.0000
1982-01-29 22:30:00 UTC,2444999.437500,29.7697,-93.3439,0046,-0.65,36.99,37.0000,359.0000
1982-01-29 23:00:00 UTC,2444999.458333,29.7697,-93.3439,0046,-0.84,47.99,48.0000,359.0000
1982-01-29 23:30:00 UTC,2444999.479167,29.7697,-93.3439,0046,0.98,55.99,56.0000,1.0000
1982-01-30 00:00:00 UTC,2444999.500000,29.7697,-93.3439,0046,2.02,57.96,58.0000,2.0000
1982-01-30 00:30:00 UTC,2444999.520833,29.7697,-93.3439,0046,2.02,57.96,58.0000,2.0000
1982-01-30 01:00:00 UTC,2444999.541667,29.7697,-93.3439,0046,2.06,58.96,59.0000,2.0000
1982-01-30 01:30:00 UTC,2444999.562500,29.7697,-93.3439,0046,2.06,58.96,59.0000,2.0000
1982-01-30 02:00:00 UTC,2444999.583333,29.7697,-93.3439,0046,0.99,56.99,57.0000,1.0000
1982-01-30 02:30:00 UTC,2444999.604167,29.7697,-93.3439,0046,0.93,52.99,53.0000,1.0000
1982-01-30 03:00:00 UTC,2444999.625000,29.7697,-93.3439,0046,0.84,47.99,48.0000,1.0000
1982-01-30 03:30:00 UTC,2444999.645833,29.7697,-93.3439,0046,0.75,42.99,43.0000,1.0000
1982-01-30 04:00:00 UTC,2444999.666667,29.7697,-93.3439,0046,0.66,37.99,38.0000,1.0000
1982-01-30 04:30:00 UTC,2444999.687500,29.7697,-93.3439,0046,0.00,0.00,0.0000,0.0000
1982-01-30 05:00:00 UTC,2444999.708333,29.7697,-93.3439,0046,-0.49,28.00,28.0000,359.0000
1982-01-30 05:30:00 UTC,2444999.729167,29.7697,-93.3439,0046,-0.44,25.00,25.0000,359.0000
1982-01-30 06:00:00 UTC,2444999.750000,29.7697,-93.3439,0046,-0.37,21.00,21.0000,359.0000
1982-01-30 06:30:00 UTC,2444999.770833,29.7697,-93.3439,0046,-0.33,19.00,19.0000,359.0000
1982-01-30 07:00:00 UTC,2444999.791667,29.7697,-93.3439,0046,-0.33,19.00,19.0000,359.0000
1982-01-30 07:30:00 UTC,2444999.812500,29.7697,-93.3439,0046,0.35,20.00,20.0000,1.0000
1982-01-30 08:00:00 UTC,2444999.833333,29.7697,-93.3439,0046,0.38,22.00,22.0000,1.0000
1982-01-30 08:30:00 UTC,2444999.854167,29.7697,-93.3439,0046,-0.84,23.99,24.0000,358.0000
1982-01-30 09:00:00 UTC,2444999.875000,29.7697,-93.3439,0046,-1.81,25.94,26.0000,356.0000
1982-01-30 09:30:00 UTC,2444999.895833,29.7697,-93.3439,0046,-1.95,27.93,28.0000,356.0000